Station Historical Data
Daily Summary for June 4, 2017 Units:  English    Metric   Both
« Previous Day
Next Day »
Daily Weekly Monthly Yearly Custom
  High: Low: Average:
Temperature: 78.8 °F 60.5 °F 68.5 °F
Dew Point: 51.2 °F 36.5 °F 45.8 °F
Humidity: 64 % 24 % 46 %
Wind Speed: 14.0 mph 0.0 mph 3.5 mph
Wind Gust: 16.0 mph - -
Wind:- - SSE
Pressure: 29.91 in 29.83 in -
Precipitation: 0.00 in    
Historical Graphs
 
 
Tabular Data for June 4, 2017
Time Temperature Dew Point Pressure Wind Wind Speed Wind Gust Humidity Rainfall Rate (Hourly) solar
00:00 64.6 °F 50.9 °F 29.86 in ESE 5.0 mph 9.0 mph 61 % 0.00 in 0.00 W/m2
00:05 64.5 °F 50.8 °F 29.85 in ESE 5.0 mph 11.0 mph 61 % 0.00 in 0.00 W/m2
00:10 64.4 °F 51.1 °F 29.86 in ESE 8.0 mph 12.0 mph 62 % 0.00 in 0.00 W/m2
00:15 64.3 °F 50.6 °F 29.85 in ESE 2.0 mph 12.0 mph 61 % 0.00 in 0.00 W/m2
00:20 64.2 °F 50.5 °F 29.85 in ESE 6.0 mph 14.0 mph 61 % 0.00 in 0.00 W/m2
00:25 64.2 °F 50.9 °F 29.85 in ESE 2.0 mph 11.0 mph 62 % 0.00 in 0.00 W/m2
00:30 64.1 °F 50.8 °F 29.86 in ESE 8.0 mph 12.0 mph 62 % 0.00 in 0.00 W/m2
00:35 64.1 °F 50.8 °F 29.85 in ESE 2.0 mph 9.0 mph 62 % 0.00 in 0.00 W/m2
00:40 64.0 °F 51.2 °F 29.85 in ESE 5.0 mph 9.0 mph 63 % 0.00 in 0.00 W/m2
00:45 64.0 °F 51.2 °F 29.85 in ESE 2.0 mph 11.0 mph 63 % 0.00 in 0.00 W/m2
00:50 63.9 °F 51.1 °F 29.85 in ESE 5.0 mph 9.0 mph 63 % 0.00 in 0.00 W/m2
00:55 63.8 °F 51.0 °F 29.85 in ESE 4.0 mph 11.0 mph 63 % 0.00 in 0.00 W/m2
01:00 63.8 °F 51.0 °F 29.85 in Calm   14.0 mph 63 % 0.00 in 0.00 W/m2
01:05 63.7 °F 50.9 °F 29.85 in ESE 2.0 mph 13.0 mph 63 % 0.00 in 0.00 W/m2
01:10 63.6 °F 50.8 °F 29.85 in ESE 6.0 mph 9.0 mph 63 % 0.00 in 0.00 W/m2
01:15 63.5 °F 51.1 °F 29.85 in ESE 5.0 mph 12.0 mph 64 % 0.00 in 0.00 W/m2
01:20 63.4 °F 50.6 °F 29.85 in ESE 4.0 mph 13.0 mph 63 % 0.00 in 0.00 W/m2
01:25 63.3 °F 50.5 °F 29.85 in ESE 7.0 mph 9.0 mph 63 % 0.00 in 0.00 W/m2
01:30 63.3 °F 50.5 °F 29.85 in ESE 8.0 mph 13.0 mph 63 % 0.00 in 0.00 W/m2
01:35 63.2 °F 50.8 °F 29.85 in ESE 5.0 mph 12.0 mph 64 % 0.00 in 0.00 W/m2
01:40 63.2 °F 50.4 °F 29.85 in ESE 9.0 mph 14.0 mph 63 % 0.00 in 0.00 W/m2
01:45 63.2 °F 50.8 °F 29.84 in ESE 14.0 mph 16.0 mph 64 % 0.00 in 0.00 W/m2
01:50 63.1 °F 50.3 °F 29.84 in ESE 4.0 mph 12.0 mph 63 % 0.00 in 0.00 W/m2
01:55 63.1 °F 50.3 °F 29.84 in ESE 2.0 mph 12.0 mph 63 % 0.00 in 0.00 W/m2
02:00 63.0 °F 50.2 °F 29.84 in ESE 9.0 mph 12.0 mph 63 % 0.00 in 0.00 W/m2
02:05 63.0 °F 50.2 °F 29.84 in ESE 6.0 mph 14.0 mph 63 % 0.00 in 0.00 W/m2
02:10 63.0 °F 50.2 °F 29.84 in ESE 8.0 mph 13.0 mph 63 % 0.00 in 0.00 W/m2
02:15 63.0 °F 50.2 °F 29.84 in ESE 4.0 mph 15.0 mph 63 % 0.00 in 0.00 W/m2
02:20 62.9 °F 50.1 °F 29.84 in ESE 6.0 mph 15.0 mph 63 % 0.00 in 0.00 W/m2
02:25 62.8 °F 50.5 °F 29.84 in ESE 2.0 mph 11.0 mph 64 % 0.00 in 0.00 W/m2
02:30 62.8 °F 50.0 °F 29.84 in ESE 6.0 mph 11.0 mph 63 % 0.00 in 0.00 W/m2
02:35 62.7 °F 49.9 °F 29.84 in ESE 4.0 mph 15.0 mph 63 % 0.00 in 0.00 W/m2
02:40 62.6 °F 49.8 °F 29.83 in ESE 5.0 mph 12.0 mph 63 % 0.00 in 0.00 W/m2
02:45 62.6 °F 49.8 °F 29.83 in Calm   13.0 mph 63 % 0.00 in 0.00 W/m2
02:50 62.5 °F 49.8 °F 29.83 in East 11.0 mph 13.0 mph 63 % 0.00 in 0.00 W/m2
02:55 62.5 °F 49.8 °F 29.83 in ESE 6.0 mph 12.0 mph 63 % 0.00 in 0.00 W/m2
03:00 62.4 °F 49.2 °F 29.83 in ESE 5.0 mph 12.0 mph 62 % 0.00 in 0.00 W/m2
03:05 62.4 °F 49.2 °F 29.83 in ESE 6.0 mph 13.0 mph 62 % 0.00 in 0.00 W/m2
03:10 62.3 °F 49.1 °F 29.83 in ESE 9.0 mph 12.0 mph 62 % 0.00 in 0.00 W/m2
03:15 62.3 °F 49.1 °F 29.83 in ESE 6.0 mph 14.0 mph 62 % 0.00 in 0.00 W/m2
03:20 62.3 °F 49.1 °F 29.83 in ESE 11.0 mph 13.0 mph 62 % 0.00 in 0.00 W/m2
03:25 62.3 °F 49.1 °F 29.83 in ESE 9.0 mph 15.0 mph 62 % 0.00 in 0.00 W/m2
03:31 62.3 °F 48.7 °F 29.83 in ESE 2.0 mph 5.0 mph 61 % 0.00 in 0.00 W/m2
03:36 62.3 °F 48.7 °F 29.83 in ESE 2.0 mph 13.0 mph 61 % 0.00 in 0.00 W/m2
03:41 62.2 °F 48.6 °F 29.83 in ESE 7.0 mph 12.0 mph 61 % 0.00 in 0.00 W/m2
03:46 62.2 °F 48.6 °F 29.83 in Calm   12.0 mph 61 % 0.00 in 0.00 W/m2
03:51 62.2 °F 48.6 °F 29.83 in ESE 5.0 mph 5.0 mph 61 % 0.00 in 0.00 W/m2
03:56 62.1 °F 48.1 °F 29.83 in Calm   14.0 mph 60 % 0.00 in 0.00 W/m2
04:00 62.0 °F 48.0 °F 29.83 in SE 4.0 mph 11.0 mph 60 % 0.00 in 0.00 W/m2
04:06 62.0 °F 48.0 °F 29.83 in ESE 4.0 mph 12.0 mph 60 % 0.00 in 0.00 W/m2
04:11 62.0 °F 48.0 °F 29.83 in SE 7.0 mph 7.0 mph 60 % 0.00 in 0.00 W/m2
04:16 61.9 °F 47.9 °F 29.83 in ESE 2.0 mph 13.0 mph 60 % 0.00 in 0.00 W/m2
04:21 61.9 °F 47.9 °F 29.83 in SE 9.0 mph 14.0 mph 60 % 0.00 in 0.00 W/m2
04:26 61.8 °F 48.2 °F 29.83 in ESE 2.0 mph 12.0 mph 61 % 0.00 in 0.00 W/m2
04:31 61.7 °F 48.1 °F 29.83 in ESE 4.0 mph 12.0 mph 61 % 0.00 in 0.00 W/m2
04:36 61.6 °F 47.6 °F 29.83 in SE 9.0 mph 13.0 mph 60 % 0.00 in 0.00 W/m2
04:41 61.5 °F 47.5 °F 29.83 in SE 6.0 mph 11.0 mph 60 % 0.00 in 0.00 W/m2
04:46 61.4 °F 47.4 °F 29.83 in SE 2.0 mph 13.0 mph 60 % 0.00 in 0.00 W/m2
04:51 61.3 °F 47.3 °F 29.83 in SE 2.0 mph 12.0 mph 60 % 0.00 in 0.00 W/m2
04:56 61.3 °F 47.3 °F 29.83 in ESE 5.0 mph 6.0 mph 60 % 0.00 in 0.00 W/m2
05:01 61.2 °F 47.2 °F 29.83 in ESE 2.0 mph 11.0 mph 60 % 0.00 in 0.00 W/m2
05:06 61.1 °F 47.1 °F 29.83 in ESE 7.0 mph 13.0 mph 60 % 0.00 in 0.00 W/m2
05:11 61.1 °F 46.7 °F 29.84 in ESE 6.0 mph 13.0 mph 59 % 0.00 in 0.00 W/m2
05:16 61.0 °F 46.6 °F 29.84 in SE 6.0 mph 8.0 mph 59 % 0.00 in 0.00 W/m2
05:21 60.9 °F 46.0 °F 29.83 in ESE 2.0 mph 13.0 mph 58 % 0.00 in 0.00 W/m2
05:26 60.9 °F 46.5 °F 29.83 in ESE 8.0 mph 11.0 mph 59 % 0.00 in 0.00 W/m2
05:31 60.9 °F 46.5 °F 29.83 in ESE 6.0 mph 11.0 mph 59 % 0.00 in 0.00 W/m2
05:36 60.8 °F 46.4 °F 29.83 in ESE 11.0 mph 12.0 mph 59 % 0.00 in 5.00 W/m2
05:41 60.8 °F 46.0 °F 29.83 in ESE 5.0 mph 5.0 mph 58 % 0.00 in 5.00 W/m2
05:46 60.7 °F 45.8 °F 29.84 in ESE 8.0 mph 8.0 mph 58 % 0.00 in 9.00 W/m2
05:51 60.7 °F 46.3 °F 29.84 in ESE 8.0 mph 9.0 mph 59 % 0.00 in 11.00 W/m2
05:56 60.7 °F 46.3 °F 29.84 in ESE 6.0 mph 8.0 mph 59 % 0.00 in 12.00 W/m2
06:01 60.6 °F 45.8 °F 29.84 in ESE 2.0 mph 11.0 mph 58 % 0.00 in 14.00 W/m2
06:06 60.6 °F 46.2 °F 29.84 in Calm   13.0 mph 59 % 0.00 in 16.00 W/m2
06:11 60.6 °F 46.2 °F 29.84 in ESE 6.0 mph 8.0 mph 59 % 0.00 in 21.00 W/m2
06:16 60.5 °F 46.1 °F 29.84 in ESE 4.0 mph 11.0 mph 59 % 0.00 in 30.00 W/m2
06:21 60.5 °F 46.1 °F 29.84 in ESE 8.0 mph 9.0 mph 59 % 0.00 in 44.00 W/m2
06:26 60.5 °F 45.7 °F 29.84 in ESE 7.0 mph 11.0 mph 58 % 0.00 in 54.00 W/m2
06:31 60.6 °F 46.2 °F 29.84 in ESE 8.0 mph 8.0 mph 59 % 0.00 in 72.00 W/m2
06:36 60.6 °F 46.2 °F 29.84 in SE 5.0 mph 8.0 mph 59 % 0.00 in 84.00 W/m2
06:41 60.6 °F 46.2 °F 29.84 in ESE 7.0 mph 9.0 mph 59 % 0.00 in 98.00 W/m2
06:46 60.6 °F 46.7 °F 29.84 in Calm   7.0 mph 60 % 0.00 in 128.00 W/m2
06:51 60.7 °F 46.3 °F 29.84 in ESE 8.0 mph 8.0 mph 59 % 0.00 in 151.00 W/m2
06:52 60.7 °F 46.8 °F 29.84 in ESE 4.0 mph 12.0 mph 60 % 0.00 in 153.00 W/m2
06:57 60.7 °F 47.2 °F 29.84 in ESE 1.0 mph 9.0 mph 61 % 0.00 in 174.00 W/m2
07:02 60.7 °F 47.2 °F 29.85 in Calm   8.0 mph 61 % 0.00 in 195.00 W/m2
07:07 60.7 °F 47.2 °F 29.85 in Calm   11.0 mph 61 % 0.00 in 181.00 W/m2
07:12 60.7 °F 47.2 °F 29.85 in Calm   13.0 mph 61 % 0.00 in 153.00 W/m2
07:17 60.8 °F 47.3 °F 29.85 in SE 2.0 mph 8.0 mph 61 % 0.00 in 246.00 W/m2
07:22 60.8 °F 47.7 °F 29.85 in Calm   7.0 mph 62 % 0.00 in 264.00 W/m2
07:27 60.9 °F 47.8 °F 29.85 in ESE 1.0 mph 8.0 mph 62 % 0.00 in 283.00 W/m2
07:32 60.9 °F 48.2 °F 29.85 in Calm   7.0 mph 63 % 0.00 in 301.00 W/m2
07:37 61.0 °F 48.3 °F 29.85 in SE 6.0 mph 7.0 mph 63 % 0.00 in 318.00 W/m2
07:42 61.1 °F 48.4 °F 29.85 in SE 6.0 mph 11.0 mph 63 % 0.00 in 334.00 W/m2
07:47 61.2 °F 48.5 °F 29.85 in Calm   6.0 mph 63 % 0.00 in 353.00 W/m2
07:53 61.3 °F 48.6 °F 29.85 in Calm   9.0 mph 63 % 0.00 in 366.00 W/m2
07:58 61.5 °F 48.8 °F 29.85 in Calm   9.0 mph 63 % 0.00 in 385.00 W/m2
08:03 61.7 °F 49.4 °F 29.85 in SE 1.0 mph 12.0 mph 64 % 0.00 in 399.00 W/m2
08:08 61.8 °F 49.1 °F 29.85 in SE 4.0 mph 8.0 mph 63 % 0.00 in 413.00 W/m2
08:13 62.0 °F 49.3 °F 29.85 in SE 2.0 mph 11.0 mph 63 % 0.00 in 431.00 W/m2
08:18 62.3 °F 49.6 °F 29.85 in Calm   8.0 mph 63 % 0.00 in 439.00 W/m2
08:23 62.5 °F 48.9 °F 29.85 in Calm   6.0 mph 61 % 0.00 in 457.00 W/m2
08:28 62.7 °F 49.5 °F 29.85 in Calm   6.0 mph 62 % 0.00 in 476.00 W/m2
08:33 63.1 °F 49.9 °F 29.85 in Calm   8.0 mph 62 % 0.00 in 485.00 W/m2
08:38 63.4 °F 49.7 °F 29.85 in SE 5.0 mph 6.0 mph 61 % 0.00 in 504.00 W/m2
08:43 63.7 °F 50.0 °F 29.85 in Calm   9.0 mph 61 % 0.00 in 499.00 W/m2
08:48 64.0 °F 50.7 °F 29.85 in Calm   1.0 mph 62 % 0.00 in 510.00 W/m2
08:53 64.3 °F 50.6 °F 29.86 in Calm   5.0 mph 61 % 0.00 in 561.00 W/m2
08:58 64.6 °F 50.9 °F 29.85 in SSE 4.0 mph 8.0 mph 61 % 0.00 in 575.00 W/m2
09:03 64.9 °F 50.7 °F 29.85 in SSE 7.0 mph 7.0 mph 60 % 0.00 in 570.00 W/m2
09:08 65.2 °F 51.0 °F 29.85 in SSE 10.0 mph 10.0 mph 60 % 0.00 in 603.00 W/m2
09:13 65.6 °F 48.0 °F 29.85 in SSE 12.0 mph 12.0 mph 53 % 0.00 in 548.00 W/m2
09:18 66.1 °F 47.5 °F 29.85 in Calm   10.0 mph 51 % 0.00 in 628.00 W/m2
09:23 66.5 °F 47.3 °F 29.85 in Calm   10.0 mph 50 % 0.00 in 640.00 W/m2
09:28 67.0 °F 46.1 °F 29.86 in Calm   7.0 mph 47 % 0.00 in 654.00 W/m2
09:33 67.4 °F 47.6 °F 29.86 in Calm   6.0 mph 49 % 0.00 in 668.00 W/m2
09:38 67.8 °F 45.7 °F 29.86 in South 9.0 mph 11.0 mph 45 % 0.00 in 682.00 W/m2
09:43 68.2 °F 44.9 °F 29.86 in South 10.0 mph 10.0 mph 43 % 0.00 in 698.00 W/m2
09:48 68.6 °F 45.2 °F 29.86 in Calm   10.0 mph 43 % 0.00 in 721.00 W/m2
09:53 69.0 °F 47.4 °F 29.87 in Calm   4.0 mph 46 % 0.00 in 744.00 W/m2
09:58 69.5 °F 46.7 °F 29.87 in South 2.0 mph 9.0 mph 44 % 0.00 in 599.00 W/m2
10:03 69.9 °F 47.0 °F 29.87 in Calm   9.0 mph 44 % 0.00 in 701.00 W/m2
10:08 70.2 °F 46.7 °F 29.86 in SW 4.0 mph 8.0 mph 43 % 0.00 in 759.00 W/m2
10:13 70.7 °F 47.7 °F 29.86 in Calm   10.0 mph 44 % 0.00 in 775.00 W/m2
10:14 70.8 °F 48.4 °F 29.86 in SW 6.0 mph 11.0 mph 45 % 0.00 in 619.00 W/m2
10:20 71.0 °F 48.6 °F 29.86 in SW 3.0 mph 9.0 mph 45 % 0.00 in 795.00 W/m2
10:25 71.3 °F 49.5 °F 29.86 in SSW 2.0 mph 8.0 mph 46 % 0.00 in 798.00 W/m2
10:30 71.6 °F 49.2 °F 29.87 in SW 8.0 mph 15.0 mph 45 % 0.00 in 738.00 W/m2
10:35 71.8 °F 48.1 °F 29.87 in Calm   11.0 mph 43 % 0.00 in 810.00 W/m2
10:40 72.0 °F 48.9 °F 29.87 in Calm   10.0 mph 44 % 0.00 in 831.00 W/m2
10:45 72.1 °F 47.8 °F 29.87 in SSW 2.0 mph 15.0 mph 42 % 0.00 in 840.00 W/m2
10:50 72.3 °F 46.7 °F 29.87 in South 6.0 mph 10.0 mph 40 % 0.00 in 854.00 W/m2
10:55 72.5 °F 46.2 °F 29.87 in Calm   12.0 mph 39 % 0.00 in 751.00 W/m2
11:00 72.8 °F 45.0 °F 29.88 in SW 6.0 mph 15.0 mph 37 % 0.00 in 879.00 W/m2
11:05 72.9 °F 46.5 °F 29.88 in SSW 8.0 mph 13.0 mph 39 % 0.00 in 877.00 W/m2
11:10 73.0 °F 45.2 °F 29.88 in SSW 8.0 mph 16.0 mph 37 % 0.00 in 877.00 W/m2
11:16 73.1 °F 45.3 °F 29.88 in SSW 6.0 mph 13.0 mph 37 % 0.00 in 888.00 W/m2
11:20 73.3 °F 45.5 °F 29.88 in South 8.0 mph 11.0 mph 37 % 0.00 in 893.00 W/m2
11:25 73.5 °F 45.7 °F 29.89 in SSW 6.0 mph 13.0 mph 37 % 0.00 in 898.00 W/m2
11:30 73.7 °F 44.4 °F 29.89 in South 2.0 mph 16.0 mph 35 % 0.00 in 905.00 W/m2
11:36 73.8 °F 42.1 °F 29.89 in Calm   12.0 mph 32 % 0.00 in 914.00 W/m2
11:41 74.0 °F 43.9 °F 29.89 in SSW 4.0 mph 14.0 mph 34 % 0.00 in 918.00 W/m2
11:46 74.2 °F 43.3 °F 29.89 in South 9.0 mph 15.0 mph 33 % 0.00 in 925.00 W/m2
11:51 74.5 °F 43.5 °F 29.89 in SW 5.0 mph 7.0 mph 33 % 0.00 in 926.00 W/m2
11:56 74.7 °F 42.1 °F 29.90 in SSW 11.0 mph 11.0 mph 31 % 0.00 in 932.00 W/m2
12:01 75.0 °F 44.0 °F 29.89 in SSE 4.0 mph 4.0 mph 33 % 0.00 in 933.00 W/m2
12:06 75.3 °F 43.4 °F 29.89 in SSW 6.0 mph 7.0 mph 32 % 0.00 in 942.00 W/m2
12:11 75.6 °F 44.5 °F 29.89 in SSE 13.0 mph 13.0 mph 33 % 0.00 in 944.00 W/m2
12:16 76.0 °F 44.0 °F 29.90 in Calm   3.0 mph 32 % 0.00 in 949.00 W/m2
12:21 76.2 °F 43.4 °F 29.90 in SW 13.0 mph 15.0 mph 31 % 0.00 in 949.00 W/m2
12:26 76.5 °F 41.9 °F 29.90 in South 11.0 mph 12.0 mph 29 % 0.00 in 951.00 W/m2
12:31 76.8 °F 41.3 °F 29.90 in South 2.0 mph 12.0 mph 28 % 0.00 in 951.00 W/m2
12:36 77.1 °F 43.3 °F 29.90 in SSW 4.0 mph 4.0 mph 30 % 0.00 in 954.00 W/m2
12:41 77.2 °F 45.1 °F 29.90 in Calm   5.0 mph 32 % 0.00 in 954.00 W/m2
12:46 77.4 °F 43.6 °F 29.90 in SW 3.0 mph 6.0 mph 30 % 0.00 in 958.00 W/m2
12:51 77.7 °F 44.7 °F 29.90 in SSW 5.0 mph 8.0 mph 31 % 0.00 in 958.00 W/m2
12:56 78.0 °F 44.1 °F 29.90 in SSW 7.0 mph 7.0 mph 30 % 0.00 in 958.00 W/m2
13:01 78.3 °F 44.3 °F 29.90 in SW 7.0 mph 11.0 mph 30 % 0.00 in 956.00 W/m2
13:06 78.4 °F 39.7 °F 29.90 in SSE 8.0 mph 11.0 mph 25 % 0.00 in 958.00 W/m2
13:11 78.2 °F 42.5 °F 29.90 in Calm   4.0 mph 28 % 0.00 in 954.00 W/m2
13:16 78.2 °F 43.4 °F 29.90 in SSW 3.0 mph 9.0 mph 29 % 0.00 in 956.00 W/m2
13:21 78.4 °F 43.5 °F 29.90 in WSW 2.0 mph 3.0 mph 29 % 0.00 in 954.00 W/m2
13:26 78.5 °F 44.5 °F 29.90 in SSW 5.0 mph 6.0 mph 30 % 0.00 in 953.00 W/m2
13:31 78.5 °F 45.4 °F 29.90 in Calm     31 % 0.00 in 949.00 W/m2
13:36 78.6 °F 46.3 °F 29.90 in SSE 5.0 mph 9.0 mph 32 % 0.00 in 947.00 W/m2
13:41 78.8 °F 48.1 °F 29.90 in SW 10.0 mph 15.0 mph 34 % 0.00 in 946.00 W/m2
13:47 78.8 °F 47.3 °F 29.90 in SW 4.0 mph 13.0 mph 33 % 0.00 in 942.00 W/m2
13:52 78.5 °F 47.0 °F 29.90 in SW 8.0 mph 9.0 mph 33 % 0.00 in 940.00 W/m2
13:57 78.3 °F 45.2 °F 29.90 in SW 11.0 mph 11.0 mph 31 % 0.00 in 939.00 W/m2
14:02 77.8 °F 43.9 °F 29.90 in WSW 7.0 mph 10.0 mph 30 % 0.00 in 932.00 W/m2
14:07 77.7 °F 42.9 °F 29.90 in SSW 5.0 mph 9.0 mph 29 % 0.00 in 925.00 W/m2
14:12 77.6 °F 42.0 °F 29.90 in Calm   8.0 mph 28 % 0.00 in 925.00 W/m2
14:17 77.3 °F 43.5 °F 29.90 in Calm   7.0 mph 30 % 0.00 in 916.00 W/m2
14:22 77.3 °F 43.5 °F 29.90 in Calm   5.0 mph 30 % 0.00 in 911.00 W/m2
14:27 77.6 °F 42.9 °F 29.90 in WSW 3.0 mph 6.0 mph 29 % 0.00 in 905.00 W/m2
14:32 77.8 °F 44.8 °F 29.90 in SSW 1.0 mph 1.0 mph 31 % 0.00 in 904.00 W/m2
14:37 77.8 °F 44.8 °F 29.90 in Calm   1.0 mph 31 % 0.00 in 896.00 W/m2
14:42 77.7 °F 46.3 °F 29.90 in SW 2.0 mph 7.0 mph 33 % 0.00 in 893.00 W/m2
14:47 77.6 °F 44.6 °F 29.90 in Calm   1.0 mph 31 % 0.00 in 881.00 W/m2
14:52 77.7 °F 45.5 °F 29.90 in South 10.0 mph 11.0 mph 32 % 0.00 in 868.00 W/m2
14:57 77.9 °F 44.9 °F 29.90 in Calm   7.0 mph 31 % 0.00 in 854.00 W/m2
15:02 78.2 °F 46.8 °F 29.90 in Calm   1.0 mph 33 % 0.00 in 851.00 W/m2
15:07 78.4 °F 47.0 °F 29.89 in Calm   9.0 mph 33 % 0.00 in 846.00 W/m2
15:12 78.4 °F 47.0 °F 29.89 in SSW 5.0 mph 11.0 mph 33 % 0.00 in 835.00 W/m2
15:17 78.4 °F 44.4 °F 29.89 in SSW 6.0 mph 9.0 mph 30 % 0.00 in 830.00 W/m2
15:22 78.4 °F 45.3 °F 29.89 in SW 8.0 mph 8.0 mph 31 % 0.00 in 819.00 W/m2
15:27 78.3 °F 42.5 °F 29.89 in South 6.0 mph 9.0 mph 28 % 0.00 in 812.00 W/m2
15:32 78.2 °F 44.3 °F 29.89 in SW 4.0 mph 8.0 mph 30 % 0.00 in 791.00 W/m2
15:37 77.9 °F 44.9 °F 29.89 in SSE 4.0 mph 7.0 mph 31 % 0.00 in 793.00 W/m2
15:42 77.7 °F 42.9 °F 29.89 in Calm   8.0 mph 29 % 0.00 in 773.00 W/m2
15:47 77.5 °F 41.9 °F 29.89 in WSW 6.0 mph 6.0 mph 28 % 0.00 in 766.00 W/m2
15:52 77.3 °F 42.6 °F 29.89 in South 6.0 mph 8.0 mph 29 % 0.00 in 751.00 W/m2
15:57 77.4 °F 41.8 °F 29.89 in Calm   9.0 mph 28 % 0.00 in 735.00 W/m2
16:02 77.3 °F 42.6 °F 29.89 in Calm   9.0 mph 29 % 0.00 in 726.00 W/m2
16:07 77.3 °F 42.6 °F 29.89 in SSW 2.0 mph 8.0 mph 29 % 0.00 in 710.00 W/m2
16:12 77.2 °F 41.6 °F 29.89 in South 6.0 mph 10.0 mph 28 % 0.00 in 700.00 W/m2
16:17 77.2 °F 41.6 °F 29.89 in South 1.0 mph 9.0 mph 28 % 0.00 in 686.00 W/m2
16:22 77.2 °F 40.7 °F 29.89 in SSW 7.0 mph 10.0 mph 27 % 0.00 in 677.00 W/m2
16:27 77.1 °F 41.5 °F 29.88 in Calm   5.0 mph 28 % 0.00 in 663.00 W/m2
16:33 77.1 °F 41.5 °F 29.88 in SSW 7.0 mph 10.0 mph 28 % 0.00 in 652.00 W/m2
16:38 77.1 °F 40.6 °F 29.88 in SSW 2.0 mph 8.0 mph 27 % 0.00 in 640.00 W/m2
16:43 77.1 °F 39.6 °F 29.88 in Calm   2.0 mph 26 % 0.00 in 624.00 W/m2
16:48 77.1 °F 40.6 °F 29.88 in Calm   9.0 mph 27 % 0.00 in 605.00 W/m2
16:53 77.1 °F 40.6 °F 29.88 in Calm   9.0 mph 27 % 0.00 in 594.00 W/m2
16:58 77.0 °F 40.5 °F 29.88 in Calm   7.0 mph 27 % 0.00 in 578.00 W/m2
17:03 76.9 °F 39.4 °F 29.88 in Calm   4.0 mph 26 % 0.00 in 563.00 W/m2
17:08 76.9 °F 40.4 °F 29.88 in Calm   6.0 mph 27 % 0.00 in 547.00 W/m2
17:13 76.8 °F 43.0 °F 29.88 in Calm   6.0 mph 30 % 0.00 in 534.00 W/m2
17:18 76.7 °F 42.1 °F 29.88 in WSW 1.0 mph 9.0 mph 29 % 0.00 in 519.00 W/m2
17:23 76.6 °F 41.1 °F 29.88 in SSW 4.0 mph 7.0 mph 28 % 0.00 in 506.00 W/m2
17:28 76.5 °F 39.1 °F 29.88 in South 4.0 mph 8.0 mph 26 % 0.00 in 494.00 W/m2
17:33 76.5 °F 39.1 °F 29.88 in SW 4.0 mph 7.0 mph 26 % 0.00 in 478.00 W/m2
17:38 76.3 °F 38.9 °F 29.88 in Calm   5.0 mph 26 % 0.00 in 455.00 W/m2
17:43 76.2 °F 38.8 °F 29.88 in SSW 6.0 mph 7.0 mph 26 % 0.00 in 439.00 W/m2
17:48 76.1 °F 36.7 °F 29.88 in SSW 3.0 mph 11.0 mph 24 % 0.00 in 422.00 W/m2
17:53 76.0 °F 38.7 °F 29.88 in SSW 9.0 mph 9.0 mph 26 % 0.00 in 406.00 W/m2
17:58 76.0 °F 36.6 °F 29.88 in SSW 7.0 mph 7.0 mph 24 % 0.00 in 394.00 W/m2
18:03 75.9 °F 36.5 °F 29.88 in Calm   6.0 mph 24 % 0.00 in 376.00 W/m2
18:08 75.8 °F 38.5 °F 29.88 in Calm   8.0 mph 26 % 0.00 in 357.00 W/m2
18:13 75.7 °F 38.4 °F 29.88 in Calm   1.0 mph 26 % 0.00 in 343.00 W/m2
18:18 75.5 °F 40.2 °F 29.88 in SW 8.0 mph 8.0 mph 28 % 0.00 in 325.00 W/m2
18:23 75.3 °F 38.1 °F 29.88 in Calm   9.0 mph 26 % 0.00 in 306.00 W/m2
18:28 75.2 °F 39.9 °F 29.88 in Calm   7.0 mph 28 % 0.00 in 290.00 W/m2
18:33 75.1 °F 40.7 °F 29.88 in SW 9.0 mph 9.0 mph 29 % 0.00 in 272.00 W/m2
18:38 75.0 °F 41.5 °F 29.88 in Calm   7.0 mph 30 % 0.00 in 258.00 W/m2
18:43 75.0 °F 42.3 °F 29.88 in Calm   1.0 mph 31 % 0.00 in 241.00 W/m2
18:48 74.8 °F 43.0 °F 29.88 in Calm   1.0 mph 32 % 0.00 in 225.00 W/m2
18:53 74.6 °F 43.6 °F 29.88 in Calm   1.0 mph 33 % 0.00 in 209.00 W/m2
18:58 74.5 °F 44.3 °F 29.88 in West 1.0 mph 1.0 mph 34 % 0.00 in 193.00 W/m2
19:03 74.3 °F 44.1 °F 29.88 in Calm   4.0 mph 34 % 0.00 in 174.00 W/m2
19:08 74.1 °F 44.0 °F 29.88 in Calm   5.0 mph 34 % 0.00 in 155.00 W/m2
19:13 73.9 °F 43.8 °F 29.89 in Calm   3.0 mph 34 % 0.00 in 135.00 W/m2
19:18 73.7 °F 43.6 °F 29.89 in Calm   6.0 mph 34 % 0.00 in 118.00 W/m2
19:23 73.5 °F 45.7 °F 29.89 in Calm   6.0 mph 37 % 0.00 in 102.00 W/m2
19:28 73.4 °F 45.6 °F 29.89 in Calm   6.0 mph 37 % 0.00 in 84.00 W/m2
19:33 73.1 °F 45.3 °F 29.89 in Calm   2.0 mph 37 % 0.00 in 70.00 W/m2
19:38 72.9 °F 45.1 °F 29.89 in Calm   7.0 mph 37 % 0.00 in 56.00 W/m2
19:43 72.7 °F 45.7 °F 29.89 in Calm   4.0 mph 38 % 0.00 in 44.00 W/m2
19:48 72.4 °F 45.4 °F 29.90 in Calm   5.0 mph 38 % 0.00 in 32.00 W/m2
19:53 72.1 °F 45.8 °F 29.89 in Calm   6.0 mph 39 % 0.00 in 25.00 W/m2
19:58 71.8 °F 45.5 °F 29.90 in Calm   6.0 mph 39 % 0.00 in 19.00 W/m2
20:03 71.4 °F 46.5 °F 29.90 in WSW 3.0 mph 6.0 mph 41 % 0.00 in 14.00 W/m2
20:08 71.0 °F 46.1 °F 29.90 in WSW 2.0 mph 5.0 mph 41 % 0.00 in 12.00 W/m2
20:13 70.4 °F 46.2 °F 29.90 in Calm     42 % 0.00 in 9.00 W/m2
20:18 69.9 °F 45.8 °F 29.90 in Calm   5.0 mph 42 % 0.00 in 7.00 W/m2
20:23 69.6 °F 45.5 °F 29.90 in Calm   3.0 mph 42 % 0.00 in 5.00 W/m2
20:28 69.2 °F 45.2 °F 29.90 in Calm     42 % 0.00 in 0.00 W/m2
20:33 68.8 °F 44.8 °F 29.90 in Calm   1.0 mph 42 % 0.00 in 0.00 W/m2
20:38 68.5 °F 45.1 °F 29.90 in Calm     43 % 0.00 in 0.00 W/m2
20:43 68.1 °F 45.4 °F 29.90 in Calm     44 % 0.00 in 0.00 W/m2
20:49 67.6 °F 44.9 °F 29.90 in WSW 2.0 mph 3.0 mph 44 % 0.00 in 0.00 W/m2
20:54 67.2 °F 44.6 °F 29.90 in WSW 2.0 mph 3.0 mph 44 % 0.00 in 0.00 W/m2
20:59 66.7 °F 45.3 °F 29.90 in WSW 1.0 mph 3.0 mph 46 % 0.00 in 0.00 W/m2
21:04 66.2 °F 44.2 °F 29.90 in Calm   2.0 mph 45 % 0.00 in 0.00 W/m2
21:09 65.9 °F 44.6 °F 29.90 in Calm     46 % 0.00 in 0.00 W/m2
21:14 65.4 °F 44.1 °F 29.90 in WSW 2.0 mph 3.0 mph 46 % 0.00 in 0.00 W/m2
21:19 65.1 °F 43.8 °F 29.90 in SW 2.0 mph 3.0 mph 46 % 0.00 in 0.00 W/m2
21:24 64.9 °F 44.2 °F 29.91 in SW 1.0 mph 3.0 mph 47 % 0.00 in 0.00 W/m2
21:29 64.7 °F 44.0 °F 29.91 in Calm   2.0 mph 47 % 0.00 in 0.00 W/m2
21:34 64.5 °F 44.4 °F 29.91 in Calm   1.0 mph 48 % 0.00 in 0.00 W/m2
21:39 64.3 °F 44.2 °F 29.91 in Calm     48 % 0.00 in 0.00 W/m2
21:44 64.1 °F 43.5 °F 29.91 in Calm   3.0 mph 47 % 0.00 in 0.00 W/m2
21:49 64.0 °F 43.9 °F 29.91 in Calm   3.0 mph 48 % 0.00 in 0.00 W/m2
21:54 63.8 °F 43.8 °F 29.91 in Calm   3.0 mph 48 % 0.00 in 0.00 W/m2
21:59 63.7 °F 43.7 °F 29.91 in Calm   3.0 mph 48 % 0.00 in 0.00 W/m2
22:04 63.6 °F 43.6 °F 29.91 in SSW 3.0 mph 4.0 mph 48 % 0.00 in 0.00 W/m2
22:09 63.5 °F 44.0 °F 29.91 in SSW 1.0 mph 3.0 mph 49 % 0.00 in 0.00 W/m2
22:14 63.4 °F 43.4 °F 29.91 in SSE 1.0 mph 7.0 mph 48 % 0.00 in 0.00 W/m2
22:19 63.3 °F 43.3 °F 29.91 in SE 4.0 mph 5.0 mph 48 % 0.00 in 0.00 W/m2
22:24 63.2 °F 43.7 °F 29.91 in Calm   6.0 mph 49 % 0.00 in 0.00 W/m2
22:29 63.2 °F 43.2 °F 29.91 in ESE 7.0 mph 9.0 mph 48 % 0.00 in 0.00 W/m2
22:34 63.1 °F 43.7 °F 29.91 in ESE 5.0 mph 8.0 mph 49 % 0.00 in 0.00 W/m2
22:39 63.1 °F 44.2 °F 29.91 in ESE 5.0 mph 8.0 mph 50 % 0.00 in 0.00 W/m2
22:44 63.0 °F 44.1 °F 29.91 in ESE 6.0 mph 8.0 mph 50 % 0.00 in 0.00 W/m2
22:49 63.0 °F 44.1 °F 29.91 in East 4.0 mph 7.0 mph 50 % 0.00 in 0.00 W/m2
22:54 62.9 °F 44.0 °F 29.91 in East 5.0 mph 8.0 mph 50 % 0.00 in 0.00 W/m2
22:59 62.9 °F 44.0 °F 29.91 in East 6.0 mph 9.0 mph 50 % 0.00 in 0.00 W/m2
23:04 62.8 °F 43.9 °F 29.91 in East 2.0 mph 8.0 mph 50 % 0.00 in 0.00 W/m2
23:09 62.8 °F 43.4 °F 29.91 in ESE 2.0 mph 9.0 mph 49 % 0.00 in 0.00 W/m2
23:14 62.7 °F 43.3 °F 29.90 in ESE 2.0 mph 8.0 mph 49 % 0.00 in 0.00 W/m2
23:19 62.7 °F 43.3 °F 29.90 in ESE 4.0 mph 9.0 mph 49 % 0.00 in 0.00 W/m2
23:24 62.6 °F 43.2 °F 29.90 in Calm   7.0 mph 49 % 0.00 in 0.00 W/m2
23:29 62.6 °F 43.2 °F 29.90 in ESE 5.0 mph 6.0 mph 49 % 0.00 in 0.00 W/m2
23:34 62.6 °F 43.7 °F 29.90 in ESE 2.0 mph 8.0 mph 50 % 0.00 in 0.00 W/m2
23:44 62.4 °F 43.5 °F 29.90 in ESE 4.0 mph 14.0 mph 50 % 0.00 in 0.00 W/m2
23:49 62.3 °F 43.4 °F 29.90 in East 5.0 mph 13.0 mph 50 % 0.00 in 0.00 W/m2
23:54 62.1 °F 43.3 °F 29.90 in East 9.0 mph 14.0 mph 50 % 0.00 in 0.00 W/m2
23:59 62.0 °F 42.6 °F 29.90 in East 7.0 mph 13.0 mph 49 % 0.00 in 0.00 W/m2
Juneau County Weather
Compliments of Weather Underground - 4.5 mb
 WU-history PHP script courtesy of   Juneau County Weather.
powered by Cumulus v1.9.3 (1059)
Ambient Weather VWS v14.00
Top Contact Website Map Copyright © 2007 - 2018 Foresthillweather.com Never base important decisions on this or any weather information obtained from the Internet